TimeCET,TemperatureF,Dew PointF,Humidity,Sea Level PressureIn,VisibilityMPH,Wind Direction,Wind SpeedMPH,Gust SpeedMPH,PrecipitationIn,Events,Conditions,WindDirDegrees,DateUTC
12:00 AM,33.8,32.0,93,29.98,0.4,Variable,2.3,-,N/A,Fog,Fog,0,2012-11-18 23:00:00
12:30 AM,33.8,32.0,93,29.98,2.2,Variable,2.3,-,N/A,,Mist,0,2012-11-18 23:30:00
1:00 AM,32.0,32.0,100,30.01,-9999.0,SSE,2.3,-,N/A,,Mist,150,2012-11-19 00:00:00
1:30 AM,33.8,32.0,93,30.01,2.2,Calm,Calm,-,N/A,,Mist,0,2012-11-19 00:30:00
2:00 AM,32.0,30.2,93,30.01,-9999.0,Variable,3.5,-,N/A,,Partly Cloudy,0,2012-11-19 01:00:00
2:30 AM,32.0,30.2,93,30.01,-9999.0,SE,2.3,-,N/A,,Partly Cloudy,130,2012-11-19 01:30:00
3:00 AM,32.0,32.0,100,30.01,1.5,SSE,2.3,-,N/A,,Partly Cloudy,160,2012-11-19 02:00:00
3:30 AM,33.8,32.0,93,30.01,-9999.0,Calm,Calm,-,N/A,,Mostly Cloudy,0,2012-11-19 02:30:00
4:00 AM,33.8,32.0,93,30.01,1.7,Calm,Calm,-,N/A,,Mostly Cloudy,0,2012-11-19 03:00:00
4:30 AM,33.8,32.0,93,30.01,-9999.0,Variable,3.5,-,N/A,,Overcast,0,2012-11-19 03:30:00
5:00 AM,35.6,33.8,93,30.01,1.7,Variable,2.3,-,N/A,,Overcast,0,2012-11-19 04:00:00
5:30 AM,35.6,35.6,100,30.01,1.6,Variable,2.3,-,N/A,,Overcast,0,2012-11-19 04:30:00
6:00 AM,37.4,35.6,93,30.01,2.5,Calm,Calm,-,N/A,,Mostly Cloudy,0,2012-11-19 05:00:00
6:30 AM,37.4,35.6,93,30.01,2.5,Calm,Calm,-,N/A,,Mostly Cloudy,0,2012-11-19 05:30:00
7:00 AM,35.6,35.6,100,30.01,2.5,Calm,Calm,-,N/A,,Mostly Cloudy,0,2012-11-19 06:00:00
7:30 AM,35.6,35.6,100,30.01,2.5,Calm,Calm,-,N/A,,Mostly Cloudy,0,2012-11-19 06:30:00
8:00 AM,35.6,35.6,100,30.01,2.5,South,2.3,-,N/A,,Mostly Cloudy,170,2012-11-19 07:00:00
8:35 AM,37.4,35.6,93,30.04,2.5,South,1.2,-,N/A,,Mostly Cloudy,170,2012-11-19 07:35:00
9:00 AM,37.4,37.4,100,30.04,2.5,Variable,2.3,-,N/A,,Mostly Cloudy,0,2012-11-19 08:00:00
9:30 AM,41.0,39.2,93,30.04,2.5,Calm,Calm,-,N/A,,Mostly Cloudy,0,2012-11-19 08:30:00
10:00 AM,41.0,39.2,93,30.04,2.5,Variable,1.2,-,N/A,,Mostly Cloudy,0,2012-11-19 09:00:00
10:30 AM,44.6,39.2,81,30.04,2.8,Calm,Calm,-,N/A,,Scattered Clouds,0,2012-11-19 09:30:00
11:00 AM,46.4,37.4,71,30.04,3.1,Calm,Calm,-,N/A,,Scattered Clouds,0,2012-11-19 10:00:00
11:30 AM,48.2,37.4,66,30.04,3.1,Calm,Calm,-,N/A,,Scattered Clouds,0,2012-11-19 10:30:00
12:00 PM,48.2,37.4,66,30.04,3.7,Variable,1.2,-,N/A,,Partly Cloudy,0,2012-11-19 11:00:00
1:00 PM,51.8,39.2,62,30.01,3.7,Calm,Calm,-,N/A,,Partly Cloudy,0,2012-11-19 12:00:00
2:00 PM,50.0,37.4,62,30.01,4.3,Variable,2.3,-,N/A,,Unknown,0,2012-11-19 13:00:00
2:30 PM,51.8,37.4,58,30.01,4.3,Variable,1.2,-,N/A,,Unknown,0,2012-11-19 13:30:00
3:00 PM,51.8,39.2,62,29.98,5.0,Calm,Calm,-,N/A,,Unknown,0,2012-11-19 14:00:00
3:30 PM,51.8,37.4,58,29.98,5.0,Calm,Calm,-,N/A,,Unknown,0,2012-11-19 14:30:00
4:00 PM,50.0,37.4,62,29.98,5.6,West,3.5,-,N/A,,Unknown,280,2012-11-19 15:00:00
4:30 PM,46.4,37.4,71,30.01,-9999.0,West,3.5,-,N/A,,Clear,270,2012-11-19 15:30:00
5:30 PM,41.0,35.6,81,30.01,-9999.0,Variable,2.3,-,N/A,,Clear,0,2012-11-19 16:30:00
6:00 PM,39.2,35.6,87,30.01,-9999.0,South,3.5,-,N/A,,Clear,180,2012-11-19 17:00:00
6:30 PM,39.2,35.6,87,30.04,6.2,South,2.3,-,N/A,,Unknown,180,2012-11-19 17:30:00
7:00 PM,37.4,33.8,87,30.04,6.2,Variable,1.2,-,N/A,,Unknown,0,2012-11-19 18:00:00
7:30 PM,37.4,33.8,87,30.04,4.3,South,3.5,-,N/A,,Unknown,180,2012-11-19 18:30:00
8:00 PM,37.4,33.8,87,30.06,5.0,Variable,1.2,-,N/A,,Unknown,0,2012-11-19 19:00:00
8:30 PM,35.6,33.8,93,30.06,2.8,Variable,1.2,-,N/A,,Mist,0,2012-11-19 19:30:00
9:00 PM,35.6,33.8,93,30.06,0.4,Calm,Calm,-,N/A,Fog,Fog,0,2012-11-19 20:00:00
9:30 PM,33.8,32.0,93,30.06,3.1,South,2.3,-,N/A,,Mist,190,2012-11-19 20:30:00
10:00 PM,33.8,32.0,93,30.06,2.5,SSE,3.5,-,N/A,,Mist,160,2012-11-19 21:00:00
10:30 PM,33.8,33.8,100,30.06,2.5,Variable,2.3,-,N/A,,Mist,0,2012-11-19 21:30:00
11:00 PM,32.0,32.0,100,30.06,-9999.0,Variable,2.3,-,N/A,,Mist,0,2012-11-19 22:00:00
11:30 PM,33.8,32.0,93,30.06,1.6,Variable,1.2,-,N/A,,Mist,0,2012-11-19 22:30:00